Location: Mason Neck State Park
(38.6428°N, 77.1981°W)
Time: 14:09:53
(UTC-04:00)

Daily predictions for brighter satellites

Satellite Brightness Start Highest point End
(mag) Time Altitude Azimuth Time Altitude Azimuth Time Altitude Azimuth
Cosmos 990 Rocket 4.0 19:21:26 10° NNW 19:26:37 89° WSW 19:31:45 10° SSE
Cosmos 2058 Rocket 3.0 19:22:45 10° S 19:27:03 66° E 19:31:24 10° NNE
Resurs 01 Rocket 3.6 19:25:42 10° E 19:27:10 11° ENE 19:28:38 10° NE
Meteor 2-13 Rocket 4.4 19:21:53 10° S 19:27:54 68° E 19:33:56 10° NNE
SL-08 ROCKET BODY 4.4 19:22:37 10° S 19:28:25 66° E 19:34:20 10° NNE
Cosmos 1340 Rocket 3.2 19:26:06 10° NNW 19:30:10 71° W 19:34:14 10° S
Cosmos 2184 Rocket 4.2 19:28:43 10° SSE 19:34:45 50° E 19:40:51 10° NNE
SPOT 3 Rocket 3.9 19:32:07 10° S 19:37:15 73° WSW 19:42:26 10° NNW
Cosmos 1125 Rocket 4.1 19:35:53 10° N 19:40:46 36° ENE 19:45:38 10° SE
NOAA 12 4.1 19:35:55 10° SSE 19:41:08 85° ENE 19:46:26 10° NNW
Meteor 1-24 Rocket 4.0 19:36:31 10° N 19:42:19 52° ENE 19:47:52 10° SSE
Geosat 4.2 19:41:20 10° SE 19:46:11 52° ENE 19:51:04 10° NNW
Envisat 4.5 19:44:02 12° E 19:46:40 18° ENE 19:49:57 10° NNE
Milstar 3 Cent rocket 3.7 19:42:16 10° SW 19:46:51 22° S 19:50:17 11° ESE
Cosmos 1656 Rocket 3.7 19:41:12 10° NNW 19:46:51 88° WSW 19:52:24 10° SSE
ATLAS 2AS CENTAUR R/B 4.3 19:42:02 10° NNW 19:48:04 22° NNE 19:53:09 12° ENE
FENGYUN 3A 3.6 19:45:32 10° SSE 19:50:53 88° ENE 19:56:18 10° NNW
Cosmos 2327 Rocket 4.4 19:46:17 10° S 19:52:18 62° E 19:58:17 10° NNE
NOSS 3-1 (A) 4.1 19:50:42 10° NNW 19:58:28 83° ENE 20:06:59 10° SE
Cosmos 841 Rocket 4.5 19:55:06 10° SW 20:00:05 50° WNW 20:05:05 10° N
H-2A R/B 2.7 19:56:51 10° SSE 20:00:30 60° ENE 20:04:13 10° N
Cosmos 1544 2.9 19:57:37 10° S 20:01:11 65° E 20:04:46 10° NNE
SJ-6B 2.9 19:58:16 10° SSE 20:02:10 55° ENE 20:06:00 10° N
NOSS 3-1 (C) 4.4 19:58:10 10° NW 20:05:54 71° WSW 20:14:21 10° SSE
BREEZE-M (TANK) 3.9 19:51:14 10° WNW 20:06:20 81° SW 20:09:26 18° SE
Cosmos 1953 3.2 20:04:06 10° SSE 20:07:33 28° E 20:11:03 10° NNE
CSL-04 DEB 4.5 20:04:08 10° SSE 20:08:30 77° ENE 20:12:51 10° N
Cosmos 540 Rocket 3.5 20:04:02 10° SSW 20:09:08 85° WNW 20:14:16 10° NNE
Cosmos 292 Rocket 4.0 20:09:42 10° S 20:14:20 47° ESE 20:19:00 10° NNE
SL-27 R/B 2.4 20:11:11 10° S 20:14:43 61° ESE 20:18:20 10° NNE
BREEZE M DEB (TANK) 4.4 20:16:11 10° WNW 20:21:18 22° NNW 20:23:46 10° NNE
COSMOS 2406 3.9 20:15:56 10° SW 20:21:31 57° WNW 20:27:11 10° NNE
HJ-1C 3.3 20:19:33 11° S 20:22:46 83° WSW 20:26:08 10° NNW
SJ 16-02 1.4 20:18:43 10° N 20:23:02 55° ENE 20:24:56 30° SE
In-Cosmos 22 4.3 20:17:21 10° N 20:23:06 84° W 20:28:52 10° S
Cosmos 1674 3.3 20:22:44 10° N 20:25:44 35° ENE 20:25:44 35° ENE
Cosmos 1766 4.4 20:24:06 10° SSW 20:27:51 44° W 20:31:37 10° N
Cosmos 2369 4.3 20:27:59 10° N 20:33:09 35° ENE 20:34:09 33° E
Resurs 1-3 3.7 20:33:13 41° ESE 20:34:21 54° ENE 20:38:39 10° N
ALOS 4.5 20:34:54 10° SSW 20:38:47 26° W 20:42:43 10° NW
ISS -2.6 20:36:33 10° WSW 20:39:39 39° NNW 20:40:35 31° N
Cosmos 2154 Rocket 3.9 20:34:03 10° S 20:40:16 89° E 20:46:35 10° N
MOS 1-B Rocket 3.9 20:37:06 24° SE 20:40:50 62° ENE 20:46:25 10° N
BREEZE-M DEB (TANK) 3.7 20:34:22 10° WSW 20:46:21 71° NNW 20:48:26 33° NE
Meteor 1-21 Rocket 4.1 20:43:49 10° N 20:49:32 70° E 20:51:42 38° SSE
Spot 2 Rocket 3.3 20:50:59 44° SSE 20:52:36 78° ENE 20:57:38 10° N
Cosmos 1758 3.7 20:49:11 10° SSW 20:53:09 61° W 20:57:07 10° N
Cosmos 2341 Rocket 3.8 20:49:18 10° S 20:55:30 84° E 21:01:45 10° N
Meteor 2-21 4.4 20:54:21 30° SSE 20:57:20 59° E 21:03:20 10° NNE
Cosmos 2082 Rocket 4.1 20:52:34 10° S 21:03:56 - NNE 20:53:28 15° S
ATLAS 5 CENTAUR R/B 3.5 20:56:20 10° SSW 20:57:40 19° S 20:57:40 19° S
Resurs 01 Rocket 1.9 21:01:56 46° SSW 21:03:04 66° W 21:07:27 10° NNW
GP-B 3.8 21:00:36 10° N 21:04:55 52° W 21:08:55 12° SSW
CZ-2D R/B 4.4 21:04:04 33° SW 21:05:07 41° W 21:08:45 10° NNW
Cosmos 2278 3.6 21:01:26 10° NNW 21:07:05 64° ENE 21:07:09 64° ENE
ATLAS CENTAUR R/B 4.3 20:58:12 10° NW 21:07:24 32° WSW 21:10:27 17° SSW
Cosmos 1939 Rocket 4.5 21:12:33 27° N 21:12:33 27° N 21:14:24 10° N
Nadezhda 3 Rocket 4.5 21:05:14 10° NNW 21:11:24 59° W 21:17:27 10° S
Cosmos 1656 3.8 21:11:08 10° NNW 21:16:07 58° NNE 21:16:07 58° NNE
Cosmos 2218 Rocket 4.1 21:20:07 59° NE 21:20:07 59° NE 21:25:19 10° NNE
Cosmos 2285 Rocket 4.1 21:16:25 10° SSW 21:22:50 76° WNW 21:29:19 10° NNE
Cosmos 1809 Rocket 4.4 21:18:21 14° S 21:23:39 80° W 21:29:47 10° N
Cosmos 1697 Rocket 3.4 21:18:51 10° NNW 21:22:57 40° NNE 21:22:57 40° NNE
Envisat 3.6 21:24:15 46° SW 21:25:13 54° W 21:30:12 10° NNW
Cosmos 1980 Rocket 3.7 21:21:41 10° N 21:24:37 24° NNE 21:24:37 24° NNE
SL-8 Rocket 4.1 21:38:36 58° SW 21:39:40 70° W 21:45:49 10° N
Meteor 2-15 4.5 21:33:39 10° NNW 21:39:39 72° W 21:39:39 72° W
ATLAS 2AS CENTAUR R/B 2.8 21:32:27 10° NNW 21:40:28 78° NE 21:40:36 78° ENE
H-2A R/B 4.5 21:57:10 12° N 21:57:10 12° N 21:57:37 10° N
SJ 16-02 4.3 21:59:42 10° WNW 22:01:04 11° W 22:02:00 11° WSW
